This is the latest recevied weather packets stored in our database for station/object IN3BXS. If no packets are shown the sender has not sent any weather packets the latest 10 day(s).
| Time | Temp. | Humidity | Pressure | Rain* | Wind** | Luminosity | Snow |
|---|---|---|---|---|---|---|---|
| 1777881625 | 15.56° C | 22% | 1013 hPa | 0 mm | - | - | - |
| 1777879825 | 15.56° C | 22% | 1013.2 hPa | 0 mm | - | - | - |
| 1777878025 | 14.44° C | 22% | 1012.6 hPa | 0 mm | - | - | - |
| 1777876226 | 12.78° C | 25% | 1013.1 hPa | 0 mm | - | - | - |
| 1777874425 | 11.67° C | 26% | 1013.7 hPa | 0 mm | - | - | - |
| 1777872625 | 10° C | 27% | 1014.4 hPa | 0 mm | - | - | - |
| 1777870826 | 8.33° C | 28% | 1015.2 hPa | 0 mm | - | - | - |
| 1777869026 | 7.22° C | 28% | 1015.7 hPa | 0 mm | - | - | - |
| 1777867226 | 7.22° C | 28% | 1015.7 hPa | 0 mm | - | - | - |
| 1777865426 | 7.78° C | 28% | 1015.5 hPa | 0 mm | - | - | - |
| 1777863626 | 7.78° C | 28% | 1015.4 hPa | 0 mm | - | - | - |
| 1777861826 | 8.33° C | 27% | 1015.2 hPa | 0 mm | - | - | - |
| 1777860026 | 9.44° C | 26% | 1014.7 hPa | 0 mm | - | - | - |
| 1777858226 | 11.11° C | 23% | 1014 hPa | 0 mm | - | - | - |
| 1777856426 | 11.11° C | 23% | 1014 hPa | 0 mm | - | - | - |
| 1777854626 | 10.56° C | 24% | 1014 hPa | 0 mm | - | - | - |
| 1777852826 | 11.11° C | 23% | 1013.9 hPa | 0 mm | - | - | - |
| 1777851026 | 11.67° C | 26% | 1014.9 hPa | 0 mm | - | - | - |
| 1777849226 | 11.67° C | 26% | 1014.9 hPa | 0 mm | - | - | - |
| 1777847426 | 11.11° C | 26% | 1015 hPa | 0 mm | - | - | - |
| 1777845626 | 11.11° C | 26% | 1015.1 hPa | 0 mm | - | - | - |
| 1777843826 | 10.56° C | 26% | 1015.2 hPa | 0 mm | - | - | - |
| 1777842026 | 11.11° C | 26% | 1015 hPa | 0 mm | - | - | - |
| 1777840227 | 12.22° C | 23% | 1014.7 hPa | 0 mm | - | - | - |
| 1777838426 | 13.33° C | 22% | 1013 hPa | 0 mm | - | - | - |
* Rain latest hour (hover to see other rain measurements)
** Current wind speed in m/s (hover to see current wind gust speed)